Regional Weather Roundup
Issued by NWS Mt. Holly, NJ

Home | Current Version | Previous Version | Text Only | Print | Product List | Glossary On
Versions: 1 2 3 4 5 6 7 8 9 10 11 12 13 14 15 16 17 18 19 20 21 22 23 24 25 26 27 28 29 30 31 32 33 34 35 36 37 38 39 40 41 42 43 44 45 46 47 48 49 50
000
ASUS41 KPHI 282311
RWRPHI

REGIONAL WEATHER ROUNDUP
NATIONAL WEATHER SERVICE MOUNT HOLLY NJ
600 PM EST SAT FEB 28 2015

NOTE:  "FAIR" INDICATES FEW OR NO CLOUDS BELOW 12,000 FEET WITH NO
SIGNIFICANT WEATHER AND/OR OBSTRUCTIONS TO VISIBILITY.

 * = STATION DOES NOT REPORT PRECIPITATION (E.G. RAIN, SNOW, ETC.)
        OR FOG.

NJZ015>026-010000-
SOUTHERN NEW JERSEY

CITY           SKY/WX    TMP DP  RH WIND       PRES   REMARKS
POMONA         CLEAR     25  10  53 SE5       30.76R WCI  19
RIO GRANDE*    CLEAR     25   7  46 W5        30.79R WCI  19
MILLVILLE      CLEAR     27   4  37 CALM      30.76S
WRIGHTSTOWN    CLOUDY    26   1  34 NW2       30.74R
MOUNT HOLLY    CLEAR     27  -1  30 CALM      30.76R
TRENTON        CLEAR     26  -5  25 W5        30.75R WCI  20

$$
NJZ001>014-010000-
NORTHERN NEW JERSEY

CITY           SKY/WX    TMP DP  RH WIND       PRES   REMARKS
SUSSEX         CLEAR     26   4  38 CALM      30.69S
ANDOVER*         N/A     22   1  40 CALM      30.69F
MORRISTOWN     CLEAR     27   3  36 S6        30.73S WCI  20
NEWARK         PTCLDY    29   1  30 VRB3      30.74S
TETERBORO      CLEAR     28  -3  26 CALM      30.73S
CALDWELL       CLEAR     27  -2  28 CALM      30.73S
SOMERVILLE     CLEAR     25  -1  32 CALM      30.72F
ALLAIRE*       CLEAR     25   7  46 SE6       30.74S WCI  18
TOMS RIVER*    CLEAR     27   1  33 CALM      30.76R

$$
PAZ043-044-047-054-055-060>062-066>071-010000-
EASTERN PENNSYLVANIA

CITY           SKY/WX    TMP DP  RH WIND       PRES   REMARKS
PHILADELPHIA   MOCLDY    30   2  30 S5        30.77R WCI  25
NORTH PHILA    CLEAR     29  -2  26 NW3       30.77R
BLUE BELL      CLEAR     28   0  29 CALM      30.74R
DOYLESTOWN     CLEAR     24  -4  29 SW3       30.73R
QUAKERTOWN*    CLEAR     25   0  33 CALM      30.73R
POTTSTOWN      CLEAR     25  -5  26 CALM      30.76R
LANCASTER      CLEAR     23  -1  35 CALM      30.73S
COATESVILLE    PTCLDY    25   1  36 CALM      30.72S
READING        CLEAR     25  -3  29 SW5       30.73S WCI  19
ALLENTOWN      CLEAR     20   0  41 SW6       30.72S WCI  12
MOUNT POCONO   CLEAR     19  -5  34 N6        30.58S WCI  11
HAZLETON       CLEAR     21  -2  35 CALM      30.65S
WILKES BARRE   CLEAR     23  -1  35 CALM      30.67F

$$
DEZALL-MDZ008-012-015-019-020-010000-
DELAWARE AND EASTERN MARYLAND

CITY           SKY/WX    TMP DP  RH WIND       PRES   REMARKS
WILMINGTON     PTCLDY    27   3  35 W7        30.77R WCI  19
DOVER          CLEAR     24  11  57 E2        30.78R
GEORGETOWN     CLEAR     24  10  55 NE6       30.78R WCI  17
EASTON         CLEAR     28   7  40 CALM      30.81S
PATUXENT       PTCLDY    25   8  48 NE5       30.78R WCI  19
OCEAN CITY     CLEAR     25   9  50 E5        30.78S WCI  19
WALLOPS ISLAND CLEAR     25  15  66 E7        30.78S WCI  17
CAMBRIDGE      CLEAR     30   9  40 CALM      30.78R
SALISBURY      FAIR      31   6  35 CALM      30.77R

$$
PAZ001-021-NYZ056-072-MDZ011-DCZ001-010000-
OTHER NEARBY LOCATIONS

CITY           SKY/WX    TMP DP  RH WIND       PRES   REMARKS
HARRISBURG     PTCLDY    20   5  52 S3        30.74R
STATE COLLEGE  CLEAR     23  -6  28 CALM      30.65S
WILLIAMSPORT   CLEAR     24  -1  33 S5        30.71S WCI  18
BINGHAMTON     CLEAR     18  -2  41 SW3       30.61F
NEW YORK CITY  CLEAR     28  -1  28 CALM      30.75F
BALTIMORE      PTCLDY    26   4  38 SE5       30.75S WCI  20
WASHINGTON DC  PTCLDY    30   4  33 S3        30.77S

$$


USA.gov is the U.S. government's official web portal to all federal, state and local government web resources and services.